This is the latest recevied weather packets stored in our database for station/object HK6LRQ-25. If no packets are shown the sender has not sent any weather packets the latest 10 day(s).
| Time | Temp. | Humidity | Pressure | Rain* | Wind** | Luminosity | Snow |
|---|---|---|---|---|---|---|---|
| 1777953853 | 16.11° C | 92% | 1016 hPa | 0 mm | - | - | - |
| 1777952052 | 16.11° C | 93% | 1016 hPa | 0 mm | - | - | - |
| 1777950251 | 16.11° C | 90% | 1016 hPa | 0 mm | - | - | - |
| 1777948450 | 16.67° C | 92% | 1016 hPa | 0 mm | - | - | - |
| 1777946649 | 16.67° C | 90% | 1015 hPa | 0 mm | - | - | - |
| 1777944848 | 17.22° C | 92% | 1015 hPa | 0 mm | - | - | - |
| 1777943047 | 17.22° C | 88% | 1014 hPa | 0 mm | - | - | - |
| 1777941246 | 17.22° C | 91% | 1014 hPa | 0 mm | - | - | - |
| 1777939445 | 17.22° C | 90% | 1013 hPa | 0 mm | - | - | - |
| 1777937643 | 17.22° C | 90% | 1013 hPa | 0 mm | - | - | - |
| 1777935842 | 17.78° C | 85% | 1012 hPa | 0 mm | - | - | - |
| 1777934041 | 17.78° C | 87% | 1011 hPa | 0 mm | - | - | - |
| 1777932240 | 18.33° C | 83% | 1011 hPa | 0 mm | - | - | - |
| 1777930439 | 18.89° C | 81% | 1010 hPa | 0 mm | - | - | - |
| 1777928638 | 19.44° C | 81% | 1009 hPa | 0 mm | - | - | - |
| 1777926837 | 20.56° C | 80% | 1009 hPa | 0 mm | - | - | - |
| 1777925036 | 20.56° C | 80% | 1010 hPa | 0 mm | - | - | - |
| 1777923235 | 20.56° C | 75% | 1010 hPa | 0 mm | - | - | - |
| 1777921434 | 20.56° C | 80% | 1011 hPa | 0 mm | - | - | - |
| 1777919633 | 20° C | 75% | 1011 hPa | 0 mm | - | - | - |
| 1777917832 | 20° C | 76% | 1012 hPa | 0 mm | - | - | - |
| 1777916031 | 19.44° C | 78% | 1012 hPa | 0 mm | - | - | - |
| 1777914230 | 20° C | 86% | 1014 hPa | 0 mm | - | - | - |
| 1777912429 | 18.33° C | 81% | 1014 hPa | 0 mm | - | - | - |
| 1777910627 | 18.89° C | 90% | 1015 hPa | 0 mm | - | - | - |
* Rain latest hour (hover to see other rain measurements)
** Current wind speed in m/s (hover to see current wind gust speed)